N8WJE Weather Reports


Display with metric or nautical units.
time (UTC)temp
F
wind
direction
speed
MPH
gust
MPH
rain 1hr
in
rain 24hr
in
rain mn
in
humidity
%
barometer
mb
20260510192503 81 275 0.0 4.0 0.00 0.00 0.00 49 1016.7
20260510192003 81 275 0.0 3.0 0.00 0.00 0.00 54 1016.6
20260510191503 81 275 0.0 4.0 0.00 0.00 0.00 53 1016.5
20260510191217 81 275 0.0 4.0 0.00 0.00 0.00 52 1016.6
20260510190503 79 275 3.0 8.0 0.00 0.00 0.00 55 1016.5
20260510190003 79 275 1.0 8.0 0.00 0.00 0.00 53 1016.8
20260510185503 79 0 0.0 0.0 0.00 0.00 0.00 60 1016.8
20260510185003 80 0 0.0 0.0 0.00 0.00 0.00 54 1017.2
20260510184503 79 275 0.0 3.0 0.00 0.00 0.00 57 1017.0
20260510184003 78 275 1.0 8.0 0.00 0.00 0.00 58 1017.0
20260510183503 79 275 3.0 8.0 0.00 0.00 0.00 54 1017.1
20260510183003 78 275 0.0 6.0 0.00 0.00 0.00 59 1017.3
20260510182503 78 275 1.0 4.0 0.00 0.00 0.00 58 1017.2
20260510182003 78 275 1.0 4.0 0.00 0.00 0.00 57 1017.1
20260510181503 78 275 1.0 6.0 0.00 0.00 0.00 58 1017.1
20260510181003 78 275 1.0 6.0 0.00 0.00 0.00 58 1017.4
20260510180503 77 275 0.0 3.0 0.00 0.00 0.00 60 1017.5
20260510180003 77 275 0.0 1.0 0.00 0.00 0.00 64 1017.5
20260510175718 77 0 0.0 0.0 0.00 0.00 0.00 64 1017.5
20260510175003 76 275 0.0 4.0 0.00 0.00 0.00 66 1017.4
20260510174503 75 275 0.0 4.0 0.00 0.00 0.00 69 1017.4
20260510174003 75 0 0.0 0.0 0.00 0.00 0.00 69 1017.5
20260510173503 76 275 0.0 3.0 0.00 0.00 0.00 66 1017.5
20260510173003 75 275 0.0 3.0 0.00 0.00 0.00 71 1017.6
20260510172503 75 0 0.0 0.0 0.00 0.00 0.00 70 1017.6
20260510172003 75 275 0.0 1.0 0.00 0.00 0.00 75 1017.5
20260510171503 74 275 0.0 1.0 0.00 0.00 0.00 72 1017.5
20260510171003 74 277 0.0 3.0 0.00 0.00 0.00 76 1017.7
20260510170718 74 277 0.0 4.0 0.00 0.00 0.00 77 1017.7
20260510170003 74 277 0.0 4.0 0.00 0.00 0.00 74 1017.6
20260510165503 73 277 0.0 3.0 0.00 0.00 0.00 75 1017.7
20260510165003 72 277 0.0 3.0 0.00 0.00 0.00 79 1017.7
20260510164503 72 277 0.0 3.0 0.00 0.00 0.00 80 1017.8
20260510164003 72 0 0.0 0.0 0.00 0.00 0.00 80 1017.8
20260510163503 73 0 0.0 0.0 0.00 0.00 0.00 80 1017.9
20260510163003 73 277 0.0 1.0 0.00 0.00 0.00 79 1017.7
20260510162505 73 277 0.0 1.0 0.00 0.00 0.00 80 1018.0
20260510162003 72 277 0.0 1.0 0.00 0.00 0.00 82 1017.9
20260510161503 72 277 0.0 1.0 0.00 0.00 0.00 81 1017.8
20260510161003 72 0 0.0 0.0 0.00 0.00 0.00 83 1017.7
20260510160503 72 0 0.0 0.0 0.00 0.00 0.00 84 1017.8
20260510160003 71 277 0.0 1.0 0.00 0.00 0.00 84 1017.9
20260510155503 71 277 0.0 3.0 0.00 0.00 0.00 83 1017.8
20260510155003 71 277 0.0 3.0 0.00 0.00 0.00 83 1017.8
20260510154503 71 0 0.0 0.0 0.00 0.00 0.00 85 1017.6
20260510154218 70 0 0.0 0.0 0.00 0.00 0.00 85 1017.8
20260510153503 70 0 0.0 0.0 0.00 0.00 0.00 85 1017.5
20260510153003 70 0 0.0 0.0 0.00 0.00 0.00 85 1017.7
20260510152503 70 0 0.0 0.0 0.00 0.00 0.00 87 1017.5
20260510152003 69 0 0.0 0.0 0.00 0.00 0.00 88 1017.6
20260510151503 68 0 0.0 0.0 0.00 0.00 0.00 88 1017.6
20260510151003 68 0 0.0 0.0 0.00 0.00 0.00 89 1017.9
20260510150503 68 0 0.0 0.0 0.00 0.00 0.00 89 1017.7
20260510150218 67 0 0.0 0.0 0.00 0.00 0.00 90 1017.8
20260510145503 66 0 0.0 0.0 0.00 0.00 0.00 91 1017.6
20260510145003 66 0 0.0 0.0 0.00 0.00 0.00 92 1017.8
20260510144503 66 0 0.0 0.0 0.00 0.00 0.00 93 1017.6
20260510144003 66 0 0.0 0.0 0.00 0.00 0.00 93 1018.0
20260510143503 65 0 0.0 0.0 0.00 0.00 0.00 95 1017.9
20260510143003 64 0 0.0 0.0 0.00 0.00 0.00 95 1018.0
20260510142716 64 0 0.0 0.0 0.00 0.00 0.00 95 1018.0
20260510142217 64 0 0.0 0.0 0.00 0.00 0.00 95 1017.8
20260510141503 64 0 0.0 0.0 0.00 0.00 0.00 96 1018.0
20260510141003 64 0 0.0 0.0 0.00 0.00 0.00 96 1017.9
20260510140716 64 0 0.0 0.0 0.00 0.00 0.00 96 1017.9
20260510140217 64 0 0.0 0.0 0.00 0.00 0.00 96 1018.2
20260510135503 63 0 0.0 0.0 0.00 0.00 0.00 96 1018.0
20260510135003 63 0 0.0 0.0 0.00 0.00 0.00 96 1017.8
20260510134503 62 0 0.0 0.0 0.00 0.00 0.00 96 1017.8
20260510134003 62 0 0.0 0.0 0.00 0.00 0.00 96 1017.7
20260510133503 62 0 0.0 0.0 0.00 0.00 0.00 96 1017.6
20260510133003 62 0 0.0 0.0 0.00 0.00 0.00 96 1017.5
20260510132503 62 0 0.0 0.0 0.00 0.00 0.00 96 1017.5
20260510132003 62 0 0.0 0.0 0.00 0.00 0.00 96 1017.6
20260510131503 62 0 0.0 0.0 0.00 0.00 0.00 96 1017.5
20260510131003 62 0 0.0 0.0 0.00 0.00 0.00 96 1017.6
20260510130503 62 0 0.0 0.0 0.00 0.00 0.00 96 1017.4
20260510130003 62 0 0.0 0.0 0.00 0.00 0.00 96 1017.4
20260510125503 62 0 0.0 0.0 0.00 0.00 0.00 96 1017.1
20260510125003 62 0 0.0 0.0 0.00 0.00 0.00 96 1017.4
20260510124503 62 0 0.0 0.0 0.00 0.00 0.00 96 1017.1
20260510124217 62 0 0.0 0.0 0.00 0.00 0.00 96 1017.2
20260510123503 62 0 0.0 0.0 0.00 0.00 0.00 96 1017.0
20260510123003 61 0 0.0 0.0 0.00 0.00 0.00 96 1017.1
20260510122503 61 0 0.0 0.0 0.00 0.00 0.00 96 1017.1
20260510122003 61 277 0.0 3.0 0.00 0.00 0.00 96 1017.1
20260510121503 61 277 0.0 4.0 0.00 0.00 0.00 95 1016.9
20260510121003 61 277 0.0 4.0 0.00 0.00 0.00 96 1016.9
20260510120503 61 0 0.0 0.0 0.00 0.00 0.00 95 1017.0
20260510120003 61 0 0.0 0.0 0.00 0.00 0.00 95 1016.9
20260510115718 60 0 0.0 0.0 0.00 0.00 0.00 95 1016.8
20260510115216 60 0 0.0 0.0 0.00 0.00 0.00 95 1016.5
20260510114503 60 0 0.0 0.0 0.00 0.00 0.00 95 1016.6
20260510114003 60 0 0.0 0.0 0.00 0.00 0.00 95 1016.4
20260510113503 59 0 0.0 0.0 0.00 0.00 0.00 95 1016.5
20260510113003 59 0 0.0 0.0 0.00 0.00 0.00 95 1016.4
20260510112503 58 0 0.0 0.0 0.00 0.00 0.00 95 1016.4
20260510112003 58 0 0.0 0.0 0.00 0.00 0.00 95 1016.4
20260510111503 58 0 0.0 0.0 0.00 0.00 0.00 95 1016.5
20260510111216 58 0 0.0 0.0 0.00 0.00 0.00 95 1016.3
20260510110503 57 0 0.0 0.0 0.00 0.00 0.00 95 1016.5
20260510110003 57 0 0.0 0.0 0.00 0.00 0.00 95 1016.2
20260510105503 57 0 0.0 0.0 0.00 0.00 0.00 94 1015.9
20260510105003 56 0 0.0 0.0 0.00 0.00 0.00 94 1015.8
20260510104503 56 0 0.0 0.0 0.00 0.00 0.00 94 1015.7
20260510104003 56 0 0.0 0.0 0.00 0.00 0.00 94 1015.6
20260510103503 56 0 0.0 0.0 0.00 0.00 0.00 94 1015.6
20260510103003 56 0 0.0 0.0 0.00 0.00 0.00 94 1015.3
20260510102503 56 0 0.0 0.0 0.00 0.00 0.00 94 1015.4
20260510102003 56 0 0.0 0.0 0.00 0.00 0.00 94 1015.2
20260510101503 56 0 0.0 0.0 0.00 0.00 0.00 94 1015.2
20260510101003 56 0 0.0 0.0 0.00 0.00 0.00 94 1015.4
20260510100717 56 0 0.0 0.0 0.00 0.00 0.00 94 1015.3
20260510100003 57 0 0.0 0.0 0.00 0.00 0.00 94 1015.3
20260510095503 57 0 0.0 0.0 0.00 0.00 0.00 94 1015.2
20260510095003 57 0 0.0 0.0 0.00 0.00 0.00 94 1015.0
20260510094503 57 0 0.0 0.0 0.00 0.00 0.00 94 1015.1
20260510094003 57 0 0.0 0.0 0.00 0.00 0.00 94 1015.2
20260510093503 57 0 0.0 0.0 0.00 0.00 0.00 94 1014.8
20260510093003 57 0 0.0 0.0 0.00 0.00 0.00 94 1015.0
20260510092503 57 0 0.0 0.0 0.00 0.00 0.00 94 1015.0
20260510092003 57 0 0.0 0.0 0.00 0.00 0.00 94 1015.3
20260510091503 58 0 0.0 0.0 0.00 0.00 0.00 94 1015.3
20260510091003 57 0 0.0 0.0 0.00 0.00 0.00 94 1015.3
20260510090717 57 0 0.0 0.0 0.00 0.00 0.00 94 1015.4
20260510090003 57 0 0.0 0.0 0.00 0.00 0.00 94 1015.4
20260510085503 57 0 0.0 0.0 0.00 0.00 0.00 94 1015.2
20260510085003 58 0 0.0 0.0 0.00 0.00 0.00 94 1015.1
20260510084716 58 0 0.0 0.0 0.00 0.00 0.00 94 1014.9
20260510084003 58 0 0.0 0.0 0.00 0.00 0.00 94 1014.8
20260510083503 58 0 0.0 0.0 0.00 0.00 0.00 94 1014.9
20260510083003 58 0 0.0 0.0 0.00 0.00 0.00 94 1014.8
20260510082503 58 0 0.0 0.0 0.00 0.00 0.00 94 1014.4
20260510082003 58 0 0.0 0.0 0.00 0.00 0.00 94 1014.7
20260510081503 58 0 0.0 0.0 0.00 0.00 0.00 94 1014.6
20260510081003 58 0 0.0 0.0 0.00 0.00 0.00 94 1014.5
20260510080503 58 0 0.0 0.0 0.00 0.00 0.00 94 1014.2
20260510080003 58 0 0.0 0.0 0.00 0.00 0.00 94 1014.4
20260510075503 59 0 0.0 0.0 0.00 0.00 0.00 93 1014.2
20260510075003 59 0 0.0 0.0 0.00 0.00 0.00 94 1014.2
20260510074503 59 0 0.0 0.0 0.00 0.00 0.00 93 1014.2
20260510074003 59 0 0.0 0.0 0.00 0.00 0.00 94 1014.3
20260510073503 59 0 0.0 0.0 0.00 0.00 0.00 94 1014.3
20260510073217 59 0 0.0 0.0 0.00 0.00 0.00 94 1014.3
20260510072503 59 0 0.0 0.0 0.00 0.00 0.00 93 1014.2
20260510072003 59 0 0.0 0.0 0.00 0.00 0.00 94 1014.4
20260510071503 59 0 0.0 0.0 0.00 0.00 0.00 93 1014.4
20260510071003 59 0 0.0 0.0 0.00 0.00 0.00 93 1014.5
20260510070503 59 0 0.0 0.0 0.00 0.00 0.00 93 1014.3
20260510070003 59 0 0.0 0.0 0.00 0.00 0.00 93 1014.4
20260510065503 60 0 0.0 0.0 0.00 0.00 0.00 93 1014.3
20260510065217 60 0 0.0 0.0 0.00 0.00 0.00 93 1014.4
20260510064503 60 0 0.0 0.0 0.00 0.00 0.00 93 1014.4
20260510064217 60 0 0.0 0.0 0.00 0.00 0.00 93 1014.2
20260510063717 60 0 0.0 0.0 0.00 0.00 0.00 93 1014.2
20260510063216 60 0 0.0 0.0 0.00 0.00 0.00 93 1014.4
20260510062503 60 0 0.0 0.0 0.00 0.00 0.00 93 1014.4
20260510062216 60 0 0.0 0.0 0.00 0.00 0.00 93 1014.4
20260510061503 60 0 0.0 0.0 0.00 0.00 0.00 93 1014.5
20260510061216 60 0 0.0 0.0 0.00 0.00 0.00 93 1014.5
20260510060503 60 0 0.0 0.0 0.00 0.00 0.00 93 1014.2
20260510060003 60 0 0.0 0.0 0.00 0.00 0.00 93 1014.3
20260510055503 61 0 0.0 0.0 0.00 0.00 0.00 93 1014.6
20260510055003 61 0 0.0 0.0 0.00 0.00 0.00 92 1014.5
20260510054717 61 0 0.0 0.0 0.00 0.00 0.00 93 1014.5
20260510054003 61 0 0.0 0.0 0.00 0.00 0.00 93 1014.5
20260510053503 61 0 0.0 0.0 0.00 0.00 0.00 93 1014.3
20260510053003 61 0 0.0 0.0 0.00 0.00 0.00 92 1014.4
20260510052503 61 0 0.0 0.0 0.00 0.00 0.00 93 1014.4
20260510052003 61 0 0.0 0.0 0.00 0.00 0.00 92 1014.4
20260510051503 61 0 0.0 0.0 0.00 0.00 0.00 92 1014.5
20260510051003 62 0 0.0 0.0 0.00 0.00 0.00 92 1014.5
20260510050503 62 0 0.0 0.0 0.00 0.00 0.00 92 1014.4
20260510050003 62 0 0.0 0.0 0.00 0.00 0.00 92 1014.4
20260510045503 62 0 0.0 0.0 0.00 0.00 0.00 92 1014.4
20260510045003 62 0 0.0 0.0 0.00 0.00 0.00 92 1014.3
20260510044717 62 0 0.0 0.0 0.00 0.00 0.00 92 1014.3
20260510044003 62 0 0.0 0.0 0.00 0.00 0.00 91 1014.4
20260510043717 62 0 0.0 0.0 0.00 0.00 0.00 91 1014.6
20260510043003 63 0 0.0 0.0 0.00 0.00 0.00 91 1014.8
20260510042503 63 0 0.0 0.0 0.00 0.00 0.00 91 1014.2
20260510042003 63 0 0.0 0.0 0.00 0.00 0.00 90 1014.7
20260510041503 63 0 0.0 0.0 0.00 0.00 0.00 90 1014.5
20260510041218 63 0 0.0 0.0 0.00 0.00 0.00 90 1014.6
20260510040503 63 0 0.0 0.0 0.00 0.00 0.00 90 1014.6
20260510040003 64 0 0.0 0.0 0.00 0.00 0.00 90 1014.6
20260510035503 64 0 0.0 0.0 0.00 0.00 0.00 89 1014.4
20260510035003 64 0 0.0 0.0 0.00 0.00 0.00 89 1014.3
20260510034503 64 0 0.0 0.0 0.00 0.00 0.00 88 1014.7
20260510034003 65 0 0.0 0.0 0.00 0.00 0.00 88 1014.7
20260510033503 65 0 0.0 0.0 0.00 0.00 0.00 88 1014.7
20260510033003 65 0 0.0 0.0 0.00 0.00 0.00 87 1014.7
20260510032503 66 0 0.0 0.0 0.00 0.00 0.00 86 1014.7
20260510032003 66 0 0.0 0.0 0.00 0.00 0.00 86 1015.0
20260510031716 66 0 0.0 0.0 0.00 0.00 0.00 86 1014.6
20260510031003 66 0 0.0 0.0 0.00 0.00 0.00 85 1014.7
20260510030503 66 277 0.0 3.0 0.00 0.00 0.00 85 1014.5
20260510030003 66 277 0.0 3.0 0.00 0.00 0.00 85 1014.5
20260510025503 66 0 0.0 0.0 0.00 0.00 0.00 85 1014.5
20260510025003 67 277 0.0 3.0 0.00 0.00 0.00 84 1014.4
20260510024503 67 277 0.0 3.0 0.00 0.00 0.00 83 1014.4
20260510024003 67 0 0.0 0.0 0.00 0.00 0.00 83 1014.3
20260510023503 67 277 0.0 6.0 0.00 0.00 0.00 83 1014.3
20260510023003 68 277 0.0 6.0 0.00 0.00 0.00 82 1014.3
20260510022503 68 277 0.0 3.0 0.00 0.00 0.00 82 1013.8
20260510022003 68 277 0.0 3.0 0.00 0.00 0.00 82 1014.0
20260510021503 68 0 0.0 0.0 0.00 0.00 0.00 82 1014.0
20260510021003 68 0 0.0 0.0 0.00 0.00 0.00 82 1013.8
20260510020503 68 0 0.0 0.0 0.00 0.00 0.00 82 1013.6
20260510020003 68 277 0.0 1.0 0.00 0.00 0.00 81 1013.4
20260510015503 68 277 0.0 1.0 0.00 0.00 0.00 80 1013.4
20260510015003 68 0 0.0 0.0 0.00 0.00 0.00 80 1013.4
20260510014503 69 0 0.0 0.0 0.00 0.00 0.00 79 1013.2
20260510014003 69 0 0.0 0.0 0.00 0.00 0.00 79 1013.2
20260510013503 69 0 0.0 0.0 0.00 0.00 0.00 79 1013.1
20260510013003 69 0 0.0 0.0 0.00 0.00 0.00 79 1012.9
20260510012503 69 0 0.0 0.0 0.00 0.00 0.00 79 1012.9
20260510012216 69 0 0.0 0.0 0.00 0.00 0.00 78 1012.7
20260510011503 69 277 0.0 3.0 0.00 0.00 0.00 78 1012.8
20260510011216 69 277 0.0 3.0 0.00 0.00 0.00 78 1012.8
20260510010503 70 277 0.0 6.0 0.00 0.00 0.00 77 1012.8
20260510010003 70 277 0.0 6.0 0.00 0.00 0.00 77 1012.6
20260510005503 70 277 0.0 4.0 0.00 0.00 0.00 76 1012.5
20260510005216 70 277 0.0 4.0 0.00 0.00 0.00 76 1012.5
20260510004503 71 277 0.0 4.0 0.00 0.00 0.00 75 1012.5
20260510004003 71 277 0.0 3.0 0.00 0.00 0.00 74 1012.4
20260510003503 71 277 0.0 6.0 0.00 0.00 0.00 74 1012.4
20260510003003 71 277 1.0 8.0 0.00 0.00 0.00 74 1012.3
20260510002503 71 277 0.0 8.0 0.00 0.00 0.00 74 1012.3
20260510002003 71 0 0.0 0.0 0.00 0.00 0.00 74 1012.2
20260510001717 71 0 0.0 0.0 0.00 0.00 0.00 74 1012.2
20260510001003 71 0 0.0 0.0 0.00 0.00 0.00 74 1012.3
20260510000503 71 0 0.0 0.0 0.00 0.00 0.00 75 1012.2
20260510000003 71 0 0.0 0.0 0.00 0.00 0.00 74 1012.1
20260509235503 71 0 0.0 0.0 0.00 0.00 0.00 75 1011.9
20260509235218 71 0 0.0 0.0 0.00 0.00 0.00 75 1011.9
20260509234503 71 0 0.0 0.0 0.00 0.00 0.00 73 1012.3
20260509234003 72 0 0.0 0.0 0.00 0.00 0.00 70 1012.1
20260509233503 72 0 0.0 0.0 0.00 0.00 0.00 70 1011.8
20260509233218 72 0 0.0 0.0 0.00 0.00 0.00 70 1011.8
20260509232503 72 0 0.0 0.0 0.00 0.00 0.00 69 1012.0
20260509232003 72 0 0.0 0.0 0.00 0.00 0.00 73 1011.8
20260509231503 72 0 0.0 0.0 0.00 0.00 0.00 70 1012.0
20260509231003 72 0 0.0 0.0 0.00 0.00 0.00 66 1012.0
20260509230717 72 0 0.0 0.0 0.00 0.00 0.00 67 1012.0
20260509230003 72 0 0.0 0.0 0.00 0.00 0.00 69 1011.8
20260509225503 73 0 0.0 0.0 0.00 0.00 0.00 70 1012.2
20260509225003 73 0 0.0 0.0 0.00 0.00 0.00 70 1011.6
20260509224503 73 0 0.0 0.0 0.00 0.00 0.00 71 1011.8
20260509224003 73 0 0.0 0.0 0.00 0.00 0.00 68 1011.8
20260509223503 73 0 0.0 0.0 0.00 0.00 0.00 70 1011.8
20260509223003 74 0 0.0 0.0 0.00 0.00 0.00 66 1011.7
20260509222503 74 0 0.0 0.0 0.00 0.00 0.00 66 1011.5
20260509222003 74 0 0.0 0.0 0.00 0.00 0.00 62 1011.6
20260509221716 74 277 0.0 3.0 0.00 0.00 0.00 64 1011.5
20260509221003 74 277 0.0 3.0 0.00 0.00 0.00 63 1011.4
20260509220503 74 277 0.0 1.0 0.00 0.00 0.00 64 1011.3
20260509220003 74 0 0.0 0.0 0.00 0.00 0.00 65 1011.8
20260509215716 74 277 0.0 4.0 0.00 0.00 0.00 67 1011.7
20260509215003 74 277 0.0 4.0 0.00 0.00 0.00 64 1011.6
20260509214716 74 277 0.0 3.0 0.00 0.00 0.00 63 1011.5
20260509214003 74 277 0.0 4.0 0.00 0.00 0.00 64 1011.4
20260509213503 74 277 0.0 3.0 0.00 0.00 0.00 65 1011.4
20260509213003 74 277 0.0 3.0 0.00 0.00 0.00 66 1011.6
20260509212503 75 0 0.0 0.0 0.00 0.00 0.00 65 1011.3
20260509212003 75 277 0.0 1.0 0.00 0.00 0.00 66 1011.2
20260509211503 75 277 0.0 4.0 0.00 0.00 0.00 64 1011.3
20260509211003 74 277 0.0 4.0 0.00 0.00 0.00 64 1011.5
20260509210503 74 277 0.0 3.0 0.00 0.00 0.00 66 1011.5
20260509210217 74 277 0.0 3.0 0.00 0.00 0.00 67 1011.6
20260509205503 74 277 1.0 4.0 0.00 0.00 0.00 63 1011.8
20260509205003 75 277 1.0 4.0 0.00 0.00 0.00 64 1011.6
20260509204503 75 277 0.0 4.0 0.00 0.00 0.00 64 1011.8
20260509204003 74 277 1.0 4.0 0.00 0.00 0.00 64 1011.7
20260509203503 75 277 1.0 4.0 0.00 0.00 0.00 66 1011.9
20260509203217 75 277 1.0 6.0 0.00 0.00 0.00 63 1011.9
20260509202503 74 277 1.0 8.0 0.00 0.00 0.00 66 1012.1
20260509202003 74 277 0.0 8.0 0.00 0.00 0.00 68 1012.1
20260509201503 74 277 1.0 4.0 0.00 0.00 0.00 67 1012.3
20260509201003 74 277 0.0 4.0 0.00 0.00 0.00 65 1012.1
20260509200503 74 277 0.0 3.0 0.00 0.00 0.00 66 1012.1
20260509200217 74 277 0.0 3.0 0.00 0.00 0.00 68 1012.0
20260509195503 74 0 0.0 0.0 0.00 0.00 0.00 69 1012.1
20260509195216 74 0 0.0 0.0 0.00 0.00 0.00 69 1012.2
20260509194503 73 276 0.0 3.0 0.00 0.00 0.00 69 1011.9
20260509194003 73 276 0.0 3.0 0.00 0.00 0.00 71 1012.0
20260509193503 73 276 0.0 3.0 0.00 0.00 0.00 69 1012.1
20260509193216 73 276 0.0 3.0 0.00 0.00 0.00 71 1012.0